Date String (YYYY-MM-DD hh:mm:ss) UTC,Instrument flags,Ambient pressure (hPa),Sample flow (lpm),Bypass flow (lpm),Sample temperature (°C),Ambient temperature (°C),ASC tube jacket temperature (°C),LED temperature (°C),Box temperature (°C),Sample RH (%),Span deviation,Mass concentration (μg/m³),Mass concentration (μg/m³),Mass concentration (μg/m³)
DateTimeUTC,F1_M11,P_M11,Q1_M11,Q2_M11,T1_M11,T2_M11,T3_M11,T4_M11,T5_M11,U1_M11,ZSPAN_M11,X0_M11,X2_M11,X1_M11
2023-03-02 15:00:00,,0817.0,5.01,0.00,22.2,20.7,00.0,31.0,23.8,12.5,0000.0,0008.24,0005.53,0005.17
2023-03-02 15:01:00,,0817.3,4.99,0.00,22.2,22.2,00.0,31.0,24.1,12.6,0000.0,0008.26,0005.55,0005.19
2023-03-02 15:02:00,,0817.0,5.03,0.00,22.4,23.5,00.0,31.0,24.4,12.4,0000.0,0008.50,0005.57,0005.20
2023-03-02 15:03:00,,0816.8,4.99,0.00,22.5,23.2,00.0,31.0,24.4,12.3,0000.0,0008.66,0005.55,0005.22
2023-03-02 15:04:00,,0816.7,4.99,0.00,22.5,22.7,00.0,31.1,24.3,12.2,0000.0,0008.98,0005.57,0005.24
2023-03-02 15:05:00,,0816.9,5.00,0.00,22.5,22.2,00.0,31.1,24.3,12.3,0000.0,0009.11,0005.60,0005.26
2023-03-02 15:06:00,,0817.1,4.99,0.00,22.5,21.8,00.0,31.1,24.2,12.2,0000.0,0009.25,0005.66,0005.29
2023-03-02 15:07:00,,0816.9,5.01,0.00,22.5,21.5,00.0,31.1,24.1,12.3,0000.0,0009.33,0005.70,0005.31
2023-03-02 15:08:00,,0816.8,5.00,0.00,22.5,21.3,00.0,31.1,24.1,12.3,0000.0,0009.33,0005.70,0005.32
2023-03-02 15:09:00,,0816.8,4.99,0.00,22.4,21.1,00.0,31.1,24.1,12.3,0000.0,0009.32,0005.70,0005.33
2023-03-02 15:10:00,,0816.8,5.01,0.00,22.4,21.1,00.0,31.1,24.1,12.4,0000.0,0009.24,0005.71,0005.35
2023-03-02 15:11:00,,0816.8,5.00,0.00,22.4,20.9,00.0,31.1,24.0,12.4,0000.0,0009.38,0005.74,0005.37
2023-03-02 15:12:00,,0816.9,5.00,0.00,22.4,20.8,00.0,31.1,24.0,12.3,0000.0,0009.45,0005.72,0005.37
2023-03-02 15:13:00,,0816.9,4.98,0.00,22.4,20.8,00.0,31.1,24.0,12.4,0000.0,0009.90,0005.73,0005.38
2023-03-02 15:14:00,,0816.8,5.00,0.00,22.3,20.7,00.0,31.1,23.9,12.3,0000.0,0009.81,0005.74,0005.38
2023-03-02 15:15:00,,0816.9,5.00,0.00,22.3,20.8,00.0,31.1,23.9,12.3,0000.0,0009.78,0005.73,0005.37
2023-03-02 15:16:00,,0816.9,5.01,0.00,22.3,20.8,00.0,31.1,23.9,12.3,0000.0,0009.69,0005.71,0005.36
2023-03-02 15:17:00,,0816.8,4.99,0.00,22.3,20.8,00.0,31.1,23.9,12.3,0000.0,0010.05,0005.71,0005.35
2023-03-02 15:18:00,,0816.9,5.00,0.00,22.3,20.8,00.0,31.1,24.0,12.3,0000.0,0010.11,0005.67,0005.35
2023-03-02 15:19:00,,0816.9,5.00,0.00,22.3,20.8,00.0,31.1,24.0,12.4,0000.0,0010.06,0005.67,0005.37
2023-03-02 15:20:00,,0816.8,5.00,0.00,22.3,20.8,00.0,31.1,24.0,12.7,0000.0,0010.11,0005.71,0005.40
2023-03-02 15:21:00,,0816.9,5.01,0.00,22.3,20.8,00.0,31.1,24.0,12.9,0000.0,0010.16,0005.74,0005.42
2023-03-02 15:22:00,,0816.8,5.00,0.00,22.3,20.8,00.0,31.1,24.0,12.9,0000.0,0010.25,0005.74,0005.42
2023-03-02 15:23:00,,0816.7,5.00,0.00,22.3,20.7,00.0,31.1,23.9,13.0,0000.0,0010.15,0005.74,0005.44
2023-03-02 15:24:00,,0817.0,5.00,0.00,22.3,20.8,00.0,31.1,24.0,13.1,0000.0,0009.72,0005.76,0005.46
2023-03-02 15:25:00,,0817.2,4.99,0.00,22.3,20.7,00.0,31.1,23.9,12.9,0000.0,0009.55,0005.81,0005.48
2023-03-02 15:26:00,,0816.8,5.00,0.00,22.3,20.7,00.0,31.0,24.0,12.9,0000.0,0009.49,0005.87,0005.54
2023-03-02 15:27:00,,0817.1,5.00,0.00,22.3,21.3,00.0,31.0,24.1,13.0,0000.0,0009.59,0005.97,0005.59
2023-03-02 15:28:00,,0816.9,4.99,0.00,22.4,22.8,00.0,31.0,24.3,13.0,0000.0,0009.27,0006.04,0005.66
2023-03-02 15:29:00,,0817.1,5.00,0.00,22.5,23.0,00.0,31.1,24.5,12.8,0000.0,0009.21,0006.13,0005.73
2023-03-02 15:30:00,,0817.0,5.01,0.00,22.6,22.6,00.0,31.1,24.4,12.9,0000.0,0009.32,0006.23,0005.80
2023-03-02 15:31:00,,0816.9,4.97,0.00,22.6,22.2,00.0,31.1,24.4,12.9,0000.0,0009.41,0006.28,0005.85
2023-03-02 15:32:00,,0816.8,5.00,0.00,22.6,21.9,00.0,31.2,24.3,12.8,0000.0,0009.51,0006.34,0005.91
2023-03-02 15:33:00,,0816.8,5.01,0.00,22.6,21.7,00.0,31.2,24.3,12.8,0000.0,0009.52,0006.39,0005.97
2023-03-02 15:34:00,,0816.8,5.01,0.00,22.6,21.6,00.0,31.2,24.3,13.0,0000.0,0009.57,0006.47,0006.03
2023-03-02 15:35:00,,0817.0,5.00,0.00,22.6,21.5,00.0,31.2,24.3,13.1,0000.0,0009.66,0006.52,0006.09
2023-03-02 15:36:00,,0816.9,5.00,0.00,22.6,21.4,00.0,31.2,24.3,13.1,0000.0,0009.65,0006.55,0006.14
2023-03-02 15:37:00,,0817.0,5.01,0.00,22.5,21.3,00.0,31.2,24.2,12.7,0000.0,0009.81,0006.63,0006.18
2023-03-02 15:38:00,,0817.1,5.00,0.00,22.5,21.3,00.0,31.2,24.2,13.0,0000.0,0009.71,0006.62,0006.20
2023-03-02 15:39:00,,0817.1,5.02,0.00,22.5,21.2,00.0,31.2,24.2,13.3,0000.0,0009.66,0006.59,0006.19
2023-03-02 15:40:00,,0817.2,5.00,0.00,22.5,21.2,00.0,31.2,24.2,13.0,0000.0,0009.65,0006.57,0006.19
2023-03-02 15:41:00,,0816.9,5.00,0.00,22.5,21.2,00.0,31.2,24.3,13.0,0000.0,0009.93,0006.57,0006.20
2023-03-02 15:42:00,,0817.0,5.00,0.00,22.5,21.1,00.0,31.2,24.3,13.0,0000.0,0010.28,0006.57,0006.21
2023-03-02 15:43:00,,0817.1,4.99,0.00,22.5,21.1,00.0,31.2,24.2,12.9,0000.0,0010.55,0006.58,0006.24
2023-03-02 15:44:00,,0816.9,5.00,0.00,22.5,21.1,00.0,31.2,24.2,13.0,0000.0,0010.65,0006.61,0006.26
2023-03-02 15:45:00,,0816.8,5.01,0.00,22.5,21.0,00.0,31.2,24.2,13.0,0000.0,0010.61,0006.63,0006.29
2023-03-02 15:46:00,,0816.8,5.02,0.00,22.5,21.0,00.0,31.2,24.2,13.0,0000.0,0010.59,0006.68,0006.34
2023-03-02 15:47:00,,0816.8,5.00,0.00,22.5,20.9,00.0,31.2,24.2,13.1,0000.0,0010.68,0006.70,0006.38
2023-03-02 15:48:00,,0816.9,4.99,0.00,22.5,20.9,00.0,31.2,24.2,12.5,0000.0,0011.31,0006.69,0006.38
2023-03-02 15:49:00,,0816.9,5.00,0.00,22.5,20.9,00.0,31.2,24.2,12.8,0000.0,0011.43,0006.72,0006.40
2023-03-02 15:50:00,,0816.8,4.99,0.00,22.5,20.9,00.0,31.2,24.2,12.6,0000.0,0011.48,0006.77,0006.43
2023-03-02 15:51:00,,0816.9,5.01,0.00,22.5,21.0,00.0,31.2,24.2,13.2,0000.0,0011.43,0006.77,0006.44
2023-03-02 15:52:00,,0816.8,5.01,0.00,22.5,21.0,00.0,31.2,24.3,13.1,0000.0,0011.14,0006.78,0006.46
2023-03-02 15:53:00,,0816.8,4.99,0.00,22.5,21.0,00.0,31.2,24.3,13.4,0000.0,0011.13,0006.80,0006.48
2023-03-02 15:54:00,,0816.8,4.99,0.00,22.5,21.1,00.0,31.2,24.3,13.2,0000.0,0010.81,0006.82,0006.49
2023-03-02 15:55:00,,0816.8,5.00,0.00,22.5,21.1,00.0,31.2,24.3,12.9,0000.0,0010.67,0006.87,0006.55
2023-03-02 15:56:00,,0816.8,5.00,0.00,22.5,21.1,00.0,31.2,24.3,13.0,0000.0,0010.77,0006.91,0006.60
2023-03-02 15:57:00,,0816.8,5.01,0.00,22.5,21.1,00.0,31.2,24.3,12.9,0000.0,0010.88,0006.91,0006.61
2023-03-02 15:58:00,,0816.9,5.00,0.00,22.5,21.1,00.0,31.2,24.3,12.8,0000.0,0011.59,0006.92,0006.62
2023-03-02 15:59:00,,0816.9,5.00,0.00,22.5,21.2,00.0,31.2,24.3,12.9,0000.0,0010.98,0006.96,0006.68
